Tracking 28091 objects as of 30-Sep-2023
HD Live streaming from Space Station
objects crossing your sky now

STARLINK-1790

Track STARLINK-1790 now!
10-day predictions
STARLINK-1790 is classified as:


NORAD ID: 46691
Int'l Code: 2020-073X
Perigee: 553.2 km
Apogee: 555.4 km
Inclination: 53.1 °
Period: 95.6 minutes
Semi major axis: 6925 km
RCS: Unknown
Launch date: October 18, 2020
Source: United States (US)
Launch site: AIR FORCE EASTERN TEST RANGE (AFETR)
Your satellite tracking list
Your tracking list is empty




NASA's NSSDC Master Catalog

Two Line Element Set (TLE):
1 46691U 20073X   23273.17990240  .00012129  00000-0  83115-3 0  9993
2 46691  53.0533 283.7626 0001610  89.3896 270.7277 15.06426135163232
Source of the keplerian elements: AFSPC